• In Uzbekistan
  • List of Countries
  • For 7 days
  • Water Temperature
  • Satellite Maps
  • Weather Map
  • Weather Widgets
  • user-avatar
    Login

    Hourly Weather Udong

    Today, 18 July, Wednesday

    Time Temperature Precipitation Wind Pressure Humidity
    00:00 +27°C° 0 mm 4 mps 751 mmHg 89%
    01:00 +27°C° 0 mm 3 mps 750 mmHg 91%
    02:00 +27°C° 0 mm 3 mps 750 mmHg 90%
    03:00 +27°C° 0 mm 3 mps 750 mmHg 90%
    04:00 +27°C° 0 mm 3 mps 750 mmHg 89%
    05:00 +27°C° 0.2 mm 3 mps 750 mmHg 89%
    06:00 +27°C° 0.2 mm 3 mps 750 mmHg 89%
    07:00 +27°C° 0 mm 2 mps 750 mmHg 88%
    08:00 +28°C° 0.3 mm 2 mps 750 mmHg 88%
    09:00 +28°C° 0.3 mm 3 mps 750 mmHg 87%
    10:00 +28°C° 0.3 mm 3 mps 750 mmHg 87%
    11:00 +29°C° 1.3 mm 4 mps 750 mmHg 85%
    12:00 +29°C° 1.3 mm 4 mps 750 mmHg 83%
    13:00 +30°C° 1.3 mm 5 mps 750 mmHg 82%
    14:00 +30°C° 0.6 mm 6 mps 750 mmHg 79%
    15:00 +32°C° 0.6 mm 7 mps 750 mmHg 75%
    16:00 +33°C° 0.6 mm 8 mps 749 mmHg 72%
    17:00 +30°C° 0.1 mm 7 mps 750 mmHg 75%
    18:00 +29°C° 0.1 mm 5 mps 750 mmHg 79%
    19:00 +28°C° 0.1 mm 4 mps 750 mmHg 82%
    20:00 +28°C° 0 mm 4 mps 750 mmHg 82%
    21:00 +28°C° 0 mm 4 mps 751 mmHg 83%
    22:00 +28°C° 0 mm 4 mps 752 mmHg 84%
    23:00 +28°C° 0 mm 3 mps 752 mmHg 84%

    Tomorrow, 19 July, Thursday

    Time Temperature Precipitation Wind Pressure Humidity
    00:00 +27°C° 0 mm 3 mps 752 mmHg 84%
    01:00 +27°C° 0 mm 3 mps 752 mmHg 84%
    02:00 +27°C° 0 mm 3 mps 751 mmHg 85%
    03:00 +27°C° 0 mm 3 mps 751 mmHg 86%
    04:00 +27°C° 0 mm 3 mps 751 mmHg 87%
    05:00 +27°C° 0.1 mm 3 mps 751 mmHg 87%
    06:00 +27°C° 0.1 mm 3 mps 752 mmHg 87%
    07:00 +28°C° 0.1 mm 3 mps 752 mmHg 88%
    08:00 +29°C° 0.2 mm 5 mps 752 mmHg 82%
    09:00 +30°C° 0.2 mm 6 mps 752 mmHg 76%
    10:00 +33°C° 0.2 mm 7 mps 752 mmHg 70%
    11:00 +33°C° 0.5 mm 7 mps 752 mmHg 69%
    12:00 +33°C° 0.5 mm 7 mps 752 mmHg 68%
    13:00 +34°C° 0.5 mm 7 mps 752 mmHg 67%
    14:00 +33°C° 0.8 mm 7 mps 752 mmHg 68%
    15:00 +33°C° 0.8 mm 7 mps 751 mmHg 68%
    16:00 +33°C° 0.8 mm 7 mps 751 mmHg 69%
    17:00 +32°C° 0.1 mm 6 mps 752 mmHg 73%
    18:00 +30°C° 0.1 mm 5 mps 752 mmHg 77%
    19:00 +29°C° 0.1 mm 4 mps 752 mmHg 81%
    20:00 +28°C° 0 mm 3 mps 753 mmHg 83%
    21:00 +28°C° 0 mm 3 mps 753 mmHg 85%
    22:00 +28°C° 0 mm 3 mps 754 mmHg 87%
    23:00 +27°C° 0 mm 3 mps 754 mmHg 88%

    Day after tomorrow, 20 July, Friday

    Time Temperature Precipitation Wind Pressure Humidity
    00:00 +27°C° 0 mm 2 mps 754 mmHg 88%
    01:00 +27°C° 0 mm 2 mps 754 mmHg 89%
    02:00 +27°C° 0 mm 2 mps 754 mmHg 89%
    03:00 +27°C° 0 mm 2 mps 753 mmHg 90%
    04:00 +27°C° 0 mm 2 mps 753 mmHg 90%
    05:00 +27°C° 0 mm 2 mps 753 mmHg 89%
    06:00 +27°C° 0 mm 3 mps 754 mmHg 88%
    07:00 +27°C° 0 mm 3 mps 754 mmHg 87%
    08:00 +29°C° 0 mm 3 mps 754 mmHg 80%
    09:00 +30°C° 0 mm 4 mps 755 mmHg 74%
    10:00 +33°C° 0 mm 5 mps 755 mmHg 67%
    11:00 +34°C° 0.4 mm 5 mps 755 mmHg 65%
    12:00 +34°C° 0.4 mm 5 mps 754 mmHg 62%
    13:00 +35°C° 0.4 mm 6 mps 754 mmHg 60%
    14:00 +35°C° 1.1 mm 6 mps 753 mmHg 62%
    15:00 +34°C° 1.1 mm 6 mps 753 mmHg 64%
    16:00 +33°C° 1.1 mm 6 mps 752 mmHg 66%
    17:00 +32°C° 0.1 mm 5 mps 753 mmHg 70%
    18:00 +30°C° 0.1 mm 4 mps 753 mmHg 74%
    19:00 +29°C° 0.1 mm 3 mps 754 mmHg 79%
    20:00 +29°C° 0 mm 3 mps 754 mmHg 80%
    21:00 +28°C° 0 mm 3 mps 755 mmHg 82%
    22:00 +28°C° 0 mm 3 mps 756 mmHg 83%
    23:00 +28°C° 0 mm 2 mps 755 mmHg 84%

    21 July, Saturday

    Time Temperature Precipitation Wind Pressure Humidity
    00:00 +27°C° 0 mm 2 mps 755 mmHg 86%
    01:00 +27°C° 0 mm 2 mps 755 mmHg 87%
    02:00 +27°C° 0 mm 2 mps 755 mmHg 87%
    03:00 +27°C° 0 mm 2 mps 754 mmHg 88%
    04:00 +27°C° 0 mm 2 mps 754 mmHg 89%
    05:00 +27°C° 0 mm 2 mps 754 mmHg 87%
    06:00 +27°C° 0 mm 2 mps 755 mmHg 86%
    07:00 +28°C° 0 mm 2 mps 755 mmHg 85%
    08:00 +29°C° 0 mm 2 mps 755 mmHg 78%
    09:00 +31°C° 0 mm 3 mps 755 mmHg 71%
    10:00 +33°C° 0 mm 3 mps 755 mmHg 65%
    11:00 +34°C° 0 mm 3 mps 755 mmHg 62%
    12:00 +35°C° 0 mm 3 mps 754 mmHg 59%
    13:00 +36°C° 0 mm 3 mps 754 mmHg 57%
    14:00 +36°C° 0 mm 3 mps 753 mmHg 57%
    15:00 +36°C° 0 mm 2 mps 752 mmHg 57%
    16:00 +36°C° 0 mm 2 mps 752 mmHg 57%
    17:00 +34°C° 0.1 mm 2 mps 752 mmHg 62%
    18:00 +32°C° 0.1 mm 2 mps 753 mmHg 67%
    19:00 +31°C° 0.1 mm 3 mps 753 mmHg 72%
    20:00 +30°C° 0 mm 3 mps 754 mmHg 75%
    21:00 +29°C° 0 mm 3 mps 754 mmHg 77%
    22:00 +29°C° 0 mm 3 mps 755 mmHg 79%
    23:00 +29°C° 0 mm 3 mps 755 mmHg 80%

    22 July, Sunday

    Time Temperature Precipitation Wind Pressure Humidity
    00:00 +28°C° 0 mm 3 mps 754 mmHg 81%
    01:00 +28°C° 0 mm 3 mps 754 mmHg 82%
    02:00 +28°C° 0 mm 3 mps 754 mmHg 82%
    03:00 +28°C° 0 mm 3 mps 753 mmHg 82%
    04:00 +27°C° 0 mm 3 mps 753 mmHg 83%
    05:00 +28°C° 0 mm 3 mps 754 mmHg 82%
    06:00 +28°C° 0 mm 3 mps 754 mmHg 82%
    07:00 +28°C° 0 mm 3 mps 755 mmHg 82%
    08:00 +30°C° 0 mm 3 mps 755 mmHg 76%
    09:00 +31°C° 0 mm 3 mps 755 mmHg 70%
    10:00 +34°C° 0 mm 3 mps 755 mmHg 64%
    11:00 +34°C° 0.1 mm 3 mps 754 mmHg 62%
    12:00 +35°C° 0.1 mm 3 mps 754 mmHg 60%
    13:00 +35°C° 0.1 mm 3 mps 753 mmHg 58%
    14:00 +35°C° 0.7 mm 4 mps 753 mmHg 61%
    15:00 +34°C° 0.7 mm 4 mps 752 mmHg 64%
    16:00 +34°C° 0.7 mm 4 mps 752 mmHg 67%
    17:00 +33°C° 0 mm 4 mps 752 mmHg 70%
    18:00 +31°C° 0 mm 3 mps 753 mmHg 73%
    19:00 +30°C° 0 mm 3 mps 753 mmHg 76%
    20:00 +29°C° 0 mm 3 mps 754 mmHg 77%
    21:00 +29°C° 0 mm 3 mps 754 mmHg 78%
    22:00 +29°C° 0 mm 3 mps 755 mmHg 79%
    23:00 +28°C° 0 mm 3 mps 754 mmHg 81%

    23 July, Monday

    Time Temperature Precipitation Wind Pressure Humidity
    00:00 +28°C° 0 mm 3 mps 753 mmHg 82%
    01:00 +28°C° 0 mm 3 mps 753 mmHg 83%
    02:00 +28°C° 0 mm 3 mps 753 mmHg 83%
    03:00 +28°C° 0 mm 3 mps 752 mmHg 83%
    04:00 +28°C° 0 mm 3 mps 752 mmHg 83%
    05:00 +28°C° 0 mm 3 mps 753 mmHg 83%
    06:00 +28°C° 0 mm 3 mps 753 mmHg 82%
    07:00 +28°C° 0 mm 2 mps 754 mmHg 82%
    08:00 +30°C° 0 mm 3 mps 754 mmHg 76%
    09:00 +31°C° 0 mm 3 mps 754 mmHg 71%
    10:00 +33°C° 0 mm 3 mps 754 mmHg 66%
    11:00 +34°C° 0.1 mm 4 mps 754 mmHg 62%
    12:00 +35°C° 0.1 mm 4 mps 753 mmHg 59%
    13:00 +36°C° 0.1 mm 4 mps 752 mmHg 55%
    14:00 +36°C° 0.4 mm 4 mps 752 mmHg 57%
    15:00 +36°C° 0.4 mm 4 mps 751 mmHg 58%
    16:00 +35°C° 0.4 mm 4 mps 751 mmHg 60%
    17:00 +34°C° 0 mm 4 mps 751 mmHg 65%
    18:00 +33°C° 0 mm 4 mps 752 mmHg 70%
    19:00 +30°C° 0 mm 4 mps 752 mmHg 74%
    20:00 +30°C° 0 mm 4 mps 752 mmHg 76%
    21:00 +29°C° 0 mm 4 mps 753 mmHg 77%
    22:00 +29°C° 0 mm 4 mps 753 mmHg 79%
    23:00 +29°C° 0 mm 4 mps 753 mmHg 80%
    Show more